Miscellaneous Local Product
Issued by NWS Hastings, NE

Home | Current Version | Previous Version | Text Only | Print | Product List | Glossary Off
Versions: 1 2 3 4 5 6 7 8 9 10 11 12 13 14 15 16 17 18 19 20 21 22 23 24 25 26 27 28 29 30 31 32 33 34 35 36 37 38 39 40 41 42 43 44 45 46 47 48 49 50

000
AXUS43 KGID 041202
MISGRI

GID CWA HOURLY WEATHER ROUNDUP
NATIONAL WEATHER SERVICE HASTINGS NE
700 AM CDT MON MAY 04 2015

NOTE: "FAIR" INDICATES FEW OR NO CLOUDS BELOW 12,000 FEET WITH NO
SIGNIFICANT WEATHER AND/OR OBSTRUCTIONS TO VISIBILITY.

...SOUTH CENTRAL NEBRASKA...

CITY           SKY/WX    TMP DP  RH WIND       PRES   REMARKS
GRAND ISLAND   CLOUDY    57  37  47 NE14      30.04R
HASTINGS       CLOUDY    57  44  62 NE15      30.02R
KEARNEY        CLOUDY    55  39  54 NE14      30.02S
ORD            CLOUDY    56  28  34 NE10      30.07R
YORK           CLOUDY    55  46  71 NE15      30.02R
AURORA         CLOUDY    54  46  73 NE15      30.02R
LEXINGTON      CLOUDY    56  37  49 NE13      30.02R
HOLDREGE       CLOUDY    54  45  72 NE15      29.99R
HEBRON         MOCLDY    61  53  76 NE7       29.99R THUNDER

...NEBRASKA PANHANDLE...

CITY           SKY/WX    TMP DP  RH WIND       PRES   REMARKS
CHADRON        LGT RAIN  47  41  80 N7        30.14R
ALLIANCE       CLOUDY    47  41  80 E6        30.12R
SCOTTSBLUFF    CLOUDY    51  37  58 E9        30.11R
SIDNEY         CLOUDY    48  37  65 E8        30.11R

...WESTERN AND NORTH CENTRAL NEBRASKA...

CITY           SKY/WX    TMP DP  RH WIND       PRES   REMARKS
VALENTINE      CLOUDY    47  32  56 S3        30.15R
AINSWORTH      MOCLDY    46  33  59 N3        30.15R
ONEILL         MOCLDY    49  34  57 N9        30.11R
BROKEN BOW     CLOUDY    54  29  38 NE14      30.06S
IMPERIAL       CLOUDY    51  36  56 SE6       30.07R
NORTH PLATTE   CLOUDY    51  35  54 NE8       30.05S
MCCOOK         CLOUDY    55  40  56 N6        30.04R

...EASTERN NEBRASKA...

CITY           SKY/WX    TMP DP  RH WIND       PRES   REMARKS
NORFOLK        CLOUDY    56  32  40 N8        30.08R
SO SIOUX CITY  MOCLDY    56  32  40 NE9       30.05R
TEKAMAH        CLOUDY    57  42  57 N12       30.03R
COLUMBUS       CLOUDY    55  37  50 NE8       30.07R
ALBION         CLOUDY    56  28  34 NE13G18   30.06R
OMAHA EPPLEY   CLOUDY    59  50  72 NW3       30.05R
MILLARD        CLOUDY    60  49  67 CALM      30.03R
LINCOLN        LGT RAIN  55  50  83 N8        30.03R
NEBRASKA CITY  CLOUDY    58  56  94 N14       30.01R
BEATRICE       CLOUDY    58  55  88 NE15      29.97R
FALLS CITY     CLOUDY    62  55  77 N9        29.98R

...NORTHERN KANSAS...

CITY           SKY/WX    TMP DP  RH WIND       PRES   REMARKS
GOODLAND       CLOUDY    51  45  79 NE7       30.06R
HILL CITY      CLOUDY    57  48  72 CALM      30.02R
NORTON         CLOUDY    54  41  62 NW6       30.02R
PHILLIPSBURG   CLOUDY    63  48  59 NE7       29.99R
SMITH CENTER   CLOUDY    59  48  67 NE14G21   29.97R
BELOIT         CLEAR     25  21  86 CALM      29.93R
HAYS           CLOUDY    59  45  58 NW5       29.98F
RUSSELL        CLOUDY    59  48  67 NW7       29.94S
CONCORDIA      CLOUDY    61  55  81 S5        29.93R
SALINA         CLOUDY    61  55  81 S6        29.94R
TOPEKA         CLOUDY    65  55  70 S10       29.98R



USA.gov is the U.S. government's official web portal to all federal, state and local government web resources and services.